Location: Lombard
(41.8800°N, 88.0080°W)
Time: 04:52:55
(UTC-06:00)

Vanguard 2 - All Passes

Search period start: 28 January 2023 00:00
Search period end: 07 February 2023 00:00
Orbit: 554 x 2930 km, 32.9° (Epoch: 27 January)

Date Brightness Start Highest point End Pass type
(mag) Time Alt. Az. Time Alt. Az. Time Alt. Az.
28 Jan - 01:27:30 10° WSW 01:44:59 62° S 01:59:24 10° ESE visible
28 Jan - 03:40:00 10° W 03:56:14 51° SSW 04:07:47 10° SE visible
28 Jan - 05:54:30 10° W 06:05:08 24° SW 06:13:00 10° S visible
28 Jan - 21:26:19 10° SSW 21:39:04 33° SE 21:53:40 10° E visible
28 Jan - 23:33:42 10° SW 23:49:54 56° SSE 00:06:04 10° E visible
29 Jan - 01:44:25 10° W 02:01:54 62° S 02:16:12 10° ESE visible
29 Jan - 03:57:09 10° W 04:12:51 45° SSW 04:24:10 10° SE visible
29 Jan - 06:12:43 10° W 06:21:16 18° SW 06:28:02 10° S visible
29 Jan - 19:39:56 10° SSE 19:46:34 15° SE 19:54:02 10° ESE visible
29 Jan - 21:42:04 10° SSW 21:55:31 40° SSE 22:11:06 10° E visible
29 Jan - 23:50:18 10° WSW 00:06:44 60° S 00:23:02 10° E visible
30 Jan - 02:01:23 10° W 02:18:46 60° S 02:32:55 10° ESE visible
30 Jan - 04:14:23 10° W 04:29:20 39° SSW 04:40:19 10° SSE visible
30 Jan - 06:32:08 10° WSW 06:37:19 13° SW 06:41:51 10° SSW visible
30 Jan - 19:53:44 10° S 20:02:41 20° SE 20:13:19 10° E visible
30 Jan - 21:58:08 10° SW 22:12:03 46° SSE 22:28:21 10° E visible
31 Jan - 00:07:01 10° WSW 00:23:37 62° S 00:39:57 10° E visible
31 Jan - 02:18:23 10° W 02:35:35 57° SSW 02:49:32 10° ESE visible
31 Jan - 04:31:49 10° W 04:45:42 33° SW 04:56:12 10° SSE visible
31 Jan - 20:08:38 10° S 20:18:51 26° SE 20:31:32 10° E visible
31 Jan - 22:14:24 10° SW 22:28:40 51° SSE 22:45:27 10° E visible
01 Feb - 00:23:49 10° WSW 00:40:31 63° S 00:56:49 10° ESE visible
01 Feb - 02:35:26 10° W 02:52:18 52° SSW 03:06:01 10° SE visible
01 Feb - 04:49:30 10° W 05:01:58 27° SW 05:11:44 10° S visible
01 Feb - 20:24:06 10° SSW 20:35:06 33° SE 20:49:14 10° E visible
01 Feb - 22:30:51 10° SW 22:45:24 56° SSE 23:02:30 10° E visible
02 Feb - 00:40:40 10° W 00:57:25 62° S 01:13:37 10° ESE visible
02 Feb - 02:52:33 10° W 03:08:55 46° SSW 03:22:19 10° SE visible
02 Feb - 05:07:39 10° W 05:18:07 20° SW 05:26:42 10° S visible
02 Feb - 18:38:25 10° SSE 18:43:17 13° SE 18:48:51 10° ESE visible
02 Feb - 20:39:55 10° SSW 20:51:27 39° SSE 21:06:39 10° E visible
02 Feb - 22:47:27 10° WSW 23:02:11 60° S 23:19:28 10° E visible
03 Feb - 00:57:35 10° W 01:14:17 60° S 01:30:19 10° ESE visible
03 Feb - 03:09:45 10° W 03:25:26 40° SSW 03:38:24 10° SSE visible
03 Feb - 05:26:48 10° WSW 05:34:11 15° SW 05:40:39 10° SSW visible
03 Feb - 18:52:08 10° S 18:59:19 19° SE 19:08:17 10° E visible
03 Feb - 20:56:01 10° SW 21:07:55 45° SSE 21:23:53 10° E visible
03 Feb - 23:04:08 10° WSW 23:19:02 62° S 23:36:24 10° E visible
04 Feb - 01:14:32 10° W 01:31:05 56° SSW 01:46:54 10° SE visible
04 Feb - 03:27:09 10° W 03:41:50 34° SW 03:54:11 10° SSE visible
04 Feb - 19:07:03 10° S 19:15:25 25° SE 19:26:31 10° E visible
04 Feb - 21:12:19 10° SW 21:24:29 51° SSE 21:41:00 10° E visible
04 Feb - 23:20:53 10° WSW 23:35:54 63° S 23:53:17 10° ESE visible
05 Feb - 01:31:31 10° W 01:47:50 52° SSW 02:03:20 10° SE visible
05 Feb - 03:44:48 10° W 03:58:07 27° SW 04:09:35 10° S visible
05 Feb - 19:22:35 10° SSW 19:31:36 31° SE 19:44:12 10° E visible
05 Feb - 21:28:46 10° WSW 21:41:09 56° SSE 21:58:03 10° E visible
05 Feb - 23:37:42 10° W 23:52:46 61° S 00:10:04 10° ESE visible
06 Feb - 01:48:36 10° W 02:04:27 46° SSW 02:19:33 10° SE visible
06 Feb - 04:02:57 10° W 04:14:19 21° SW 04:24:24 10° S visible
06 Feb - 17:38:29 10° SE 17:40:28 11° SE 17:42:35 10° ESE visible
06 Feb - 19:38:26 10° SSW 19:47:54 37° SSE 20:01:36 10° E visible
06 Feb - 21:45:20 10° WSW 21:57:54 59° S 22:15:02 10° E visible
